Location: Tarleton Observatory
(32.2162°N, 98.0976°W)
Time: 05:27:26
(UTC-05:00)

Daily predictions for brighter satellites

Satellite Brightness Start Highest point End
(mag) Time Altitude Azimuth Time Altitude Azimuth Time Altitude Azimuth
Cosmos 2237 Rocket 4.3 04:30:34 10° N 04:34:56 23° ENE 04:39:17 10° ESE
USA 238 4.5 04:43:13 41° SE 04:43:13 41° SE 04:47:31 10° SSE
ATLAS 5 CENTAUR R/B 4.4 04:39:24 10° N 04:44:20 25° NE 04:49:30 10° ESE
USA 215 3.7 04:47:47 10° SE 04:52:18 47° SSE 04:52:18 47° SSE
Cosmos 1605 Rocket 4.1 04:52:23 10° N 04:58:32 69° E 05:04:44 10° SSE
CZ-4C R/B 3.0 05:03:03 58° SSW 05:03:03 58° SSW 05:09:33 10° SSE
Cosmos 2227 Rocket 2.4 05:03:27 63° NNE 05:03:27 63° NNE 05:08:10 10° NNE
ADEOS II 4.0 04:58:40 10° NE 05:03:05 27° E 05:07:30 10° SSE
Lacrosse 5 2.7 05:08:53 42° N 05:08:53 42° N 05:12:22 10° NNE
Cosmos 2297 Rocket 2.2 05:11:41 74° SSE 05:12:03 78° ESE 05:17:42 10° NNE
Cosmos 1025 Rocket 3.9 05:13:42 45° NE 05:13:42 45° NE 05:16:52 10° NNE
CZ-2D R/B 4.4 05:10:16 10° NNW 05:10:37 12° NNW 05:10:37 12° NNW
Cosmos 2219 Rocket 2.1 05:09:22 10° NNW 05:15:06 86° ENE 05:20:46 10° SSE
Okean O Rocket 3.2 05:13:59 10° N 05:15:59 26° N 05:15:59 26° N
ADEOS Rocket 3.5 05:13:21 10° NNE 05:20:22 66° E 05:26:37 10° S
CZ-2C R/B 4.0 05:21:17 61° N 05:21:17 61° N 05:25:10 10° N
Tiangong 1 4.0 05:25:06 13° NNE 05:25:06 13° NNE 05:25:35 10° NNE
Cosmos 2344 4.3 05:26:42 33° WNW 05:27:33 33° NW 05:35:06 10° NNE
CZ-4B R/B 3.5 05:23:18 10° N 05:26:45 53° N 05:26:45 53° N
Cosmos 1680 Rocket 3.9 05:22:30 10° N 05:27:44 64° ENE 05:32:55 10° SSE
Cosmos 1606 Rocket 4.4 05:24:20 10° N 05:28:33 48° E 05:32:44 10° SSE
CZ-4B DEB 4.0 05:25:12 10° N 05:30:41 79° WNW 05:32:17 48° SSW
NOSS 3-4 (A) 3.9 05:31:05 42° WNW 05:31:19 42° NW 05:37:27 10° NNE
NOSS 3-4 (C) 3.9 05:31:09 43° WNW 05:31:25 43° NW 05:37:34 10° NNE
Delta 2 Rocket 3.9 05:34:00 45° NNE 05:34:00 45° NNE 05:37:01 10° ENE
Okean 2 3.7 05:35:48 31° SSE 05:37:40 67° E 05:41:47 10° NNE
PAYLOAD B 4.2 05:34:10 10° N 05:39:32 56° WNW 05:40:28 49° WSW
Cosmos 1726 Rocket 4.2 05:35:42 10° N 05:40:00 55° E 05:44:15 10° SSE
Cosmos 2298 Rocket 4.2 05:36:43 18° S 05:40:42 70° ESE 05:45:59 10° NNE
OAO 2 Rocket 4.3 05:39:55 32° SSW 05:41:36 41° SSE 05:46:35 10° E
Cosmos 2082 4.0 05:41:45 42° WNW 05:41:50 42° WNW 05:47:09 10° N
Cosmos 1892 Rocket 3.5 05:42:55 28° S 05:45:15 88° W 05:49:45 10° N
Thor Agena Rocket 3.6 05:43:44 10° SSE 05:49:01 84° ENE 05:54:19 10° NNW
Cosmos 2333 Rocket 2.2 05:46:23 10° NNW 05:51:58 58° WSW 05:57:28 10° S
Cosmos 2150 Rocket 3.9 05:50:42 11° SSW 05:55:37 84° ESE 06:00:47 10° NNE
PSLV R/B 3.5 05:54:52 10° N 05:59:08 61° WNW 06:01:34 24° SSW
GOES 2 Rocket 4.3 05:56:46 32° WSW 05:59:49 65° S 06:07:47 10° E
Cosmos 1000 Rocket 4.4 05:57:38 10° S 06:03:57 75° W 06:10:18 10° N
Cosmos 2098 Rocket 4.0 06:04:50 10° N 06:08:47 52° E 06:13:48 10° SSE
Cosmos 1666 2.7 06:08:38 10° NNW 06:12:26 55° W 06:16:10 10° S
Cosmos 2016 Rocket 4.2 06:06:20 10° N 06:12:41 77° E 06:18:55 10° S
Meteor 2-4 Rocket 4.2 06:08:59 13° SW 06:13:44 41° WNW 06:19:17 10° N
CZ-4B R/B 4.1 06:09:52 10° NNW 06:14:22 27° WNW 06:16:14 22° W
DELTA 2 R/B (1) 3.9 06:11:43 25° W 06:14:51 56° NNW 06:20:21 10° ENE
Cosmos 2228 3.2 06:10:38 10° N 06:15:02 75° E 06:19:23 10° S
Hubble Space Telescope 2.1 06:16:50 21° SW 06:18:09 25° SSW 06:21:34 10° SE
Cosmos 2173 Rocket 3.9 06:12:29 10° NNW 06:18:32 67° W 06:24:36 10° S
Cosmos 2237 Rocket 2.5 06:13:52 10° NW 06:19:05 40° WSW 06:24:16 10° S
OTV 4 0.5 06:18:30 30° NW 06:19:36 60° NNE 06:22:19 10° ESE
FALCON 9 R/B 3.9 06:14:24 18° WSW 06:19:44 77° SSE 06:46:31 10° ENE
Okean-O 2.9 06:15:35 10° N 06:19:49 44° WNW 06:24:01 10° SW
RESURS DK-1 4.1 06:22:24 16° WNW 06:22:24 16° WNW 06:25:01 10° NNW
Cosmos 2123 Rocket 4.0 06:17:34 10° S 06:23:45 84° E 06:29:57 10° N
ISS -1.3 06:24:40 15° SW 06:24:40 15° SW 06:25:56 10° SSW
NOSS 3-2 (A) 4.3 06:18:43 10° NW 06:26:00 45° WSW 06:33:37 10° S
Cosmos 1459 Rocket 4.1 06:21:51 10° NNW 06:28:01 54° W 06:34:07 10° SSW
Cosmos 2058 Rocket 3.2 06:24:06 10° NNW 06:28:18 49° W 06:32:30 10° SSW
ATLAS 5 CENTAUR R/B 2.6 06:23:17 10° NW 06:29:20 55° WSW 06:35:43 10° S
Cosmos 1898 Rocket 4.0 06:24:29 10° SW 06:29:29 41° WNW 06:34:29 10° N
Radarsat Rocket 4.3 06:24:02 10° NNE 06:30:40 75° ESE 06:36:38 10° S
Cosmos 1346 Rocket 4.2 06:32:28 17° W 06:33:08 18° WNW 06:35:53 10° NNW
COSMO-SKYMED 1 3.7 06:33:24 10° SSE 06:37:34 48° ENE 06:41:45 10° N
MOS 1 Rocket 3.6 06:32:56 10° N 06:37:38 53° WNW 06:42:36 10° SSW
SL-16 R/B 2.2 06:32:29 10° NNW 06:38:09 70° WSW 06:43:45 10° S
COBE Rocket 4.0 06:35:00 10° N 06:39:35 50° WNW 06:44:05 10° SSW
ADEOS II 2.9 06:38:14 10° NNW 06:42:42 29° WNW 06:47:09 10° SW
Cosmos 1937 Rocket 3.9 06:40:09 10° SW 06:45:01 41° WNW 06:49:59 10° N
Cosmos 2227 Rocket 4.1 06:46:14 10° WNW 06:47:16 10° NW 06:48:19 10° NW
NOAA 6 4.1 06:44:02 10° N 06:49:08 60° WNW 06:54:13 10° SSW
CZ-4B R/B 4.4 06:45:46 10° N 06:49:18 34° WNW 06:52:43 10° SW
Lacrosse 5 4.0 06:49:51 10° NW 06:51:14 11° NNW 06:52:37 10° NNW
Cosmos 2297 Rocket 4.0 06:54:22 10° W 06:56:41 12° NW 06:59:01 10° NNW
NOSS 2-2 (D) 3.9 06:53:10 10° SW 06:57:00 41° NW 07:01:14 10° NNE
Cosmos 1626 Rocket 4.1 06:54:21 10° SSW 06:58:24 35° W 07:02:25 10° NNW
CENTAUR R/B 3.4 06:57:08 10° NNW 07:05:12 82° ENE 07:13:34 10° SSE
